Weather in Krasnoyarsky

Russia / Volgograd Oblast     48°24′10″N   42°16′58″E
temp.,
°C
wind,
m/s
gust,
m/s
humid.,
%
clouds,
%
prec.,
mm/h
press.,
hPa
HPBL,
m
6 august, fri
fri600:00+25ese6133522 0.0 1014348
03:00+22e31141100 0.0 1014243
06:00+23ese411395 0.0 1014324
09:00+29se782713 0.0 1013950
12:00+33ese662353 0.0 10122104
15:00+34ese662192 0.0 10112669
18:00+33ese562195 0.0 10102378
21:00+27e41029100 0.0 1010170
7 august, sat
sat700:00+26e51527100 0.0 1010382
03:00+25ese6152786 0.0 1010438
06:00+24e61529100 0.0 1010455
09:00+29ese81222100 0.0 1010834
12:00+34ese8917100 0.0 10091749
15:00+36ese7816100 0.0 10082233
18:00+35e6918100 0.0 10071703
21:00+29e51524100 0.0 1008323
8 august, sun
sun800:00+29e71623100 0.0 1008493
03:00+27e61325100 0.0 1009305
06:00+26e41127100 0.0 1010309
09:00+30se5822100 0.0 1011680
12:00+31sse5522100 0.0 10111282
15:00+34nw1518100 0.0 10101547
18:00+31ne81323100 0.0 1009443
21:00+32e71516100 0.0 1009792
9 august, mon
mon900:00+30e7151898 0.0 1009619
03:00+26ese51224100 0.0 1010306
06:00+25ese41030100 0.0 1011271
09:00+30se6725100 0.0 1012811
12:00+33sse3324100 0.0 10121422
15:00+36s232499 0.0 10112103
18:00+35ene022553 0.0 10101737
21:00+28se3843100 0.3 1012129
10 august, tue
tue1000:00+26wnw225570 0.1 101251
03:00+25n3350100 0.1 101250
06:00+25ene2332100 0.1 101171
09:00+26sse2333100 0.1 1011124
12:00+26ese123757 0.0 101193
15:00+33se23305 0.0 10092021
18:00+32s233656 0.4 1009484
21:00+28s35447 0.5 1009119